Weather History for K8D3 - August, 2013

Change the Weather History Date:

Tuesday, August 20, 2013

  Actual Average Record
Temperature  
Mean Temperature 79 °F 69 °F  
Max Temperature 93 °F 80 °F 102 °F (1976)
Min Temperature 64 °F 57 °F 39 °F (2004)
Degree Days  
Heating Degree Days 0 1  
Month to date heating degree days 23 11  
Since 1 June heating degree days 118 86  
Since 1 July heating degree days 49 24  
Cooling Degree Days 14 5  
Month to date cooling degree days 54 115  
Year to date cooling degree days 402 437  
Since 1 June cooling degree days 377 414  
Growing Degree Days 28 (Base 50)    
Moisture  
Dew Point 69 °F    
Average Humidity 71    
Maximum Humidity 100    
Minimum Humidity 41    
Precipitation  
Precipitation 0.00 in 0.06 in 2.24 in (1966)
Month to date precipitation 0.64 1.55  
Year to date precipitation 18.36 15.85  
Sea Level Pressure  
Sea Level Pressure 29.74 in    
Wind  
Wind Speed 5 mph (South)    
Max Wind Speed 15 mph    
Max Gust Speed 24 mph    
T = Trace of Precipitation, MM = Missing Value Source: NWS Daily Summary

Daily Weather History Graph

Daily Weather History Graph

Search for Another Location

Airport or City:

Trip Planner

Search our weather history database for the weather conditions in past years. The results will help you decide how hot, cold, wet, or windy it might be!

Date:

Astronomy

Aug. 20, 2013 Rise Set
Actual Time 6:34 AM CDT 8:26 PM CDT
Civil Twilight 6:02 AM CDT 8:58 PM CDT
Nautical Twilight 5:23 AM CDT 9:37 PM CDT
Astronomical Twilight 4:41 AM CDT 10:19 PM CDT
Moon 7:55 PM CDT (8/20) 6:07 AM CDT (8/20)
Length of Visible Light 14h 55m
Length of Day
13h 52m
Full, 100% of the Moon is Illuminated
Aug 20
Full
Aug 20
Full
Aug 28
Last Quarter
Sep 5
New
Sep 12
First Quarter

Hourly Weather History & Observations

Time (CDT) Temp. Heat Index Dew Point Humidity Pressure Visibility Wind Dir Wind Speed Gust Speed Precip Events Conditions
12:56 AM 69.1 °F - 66.9 °F 93% 29.77 in - SSW 3.5 mph - N/A   Unknown
1:56 AM 66.9 °F - 66.0 °F 97% 29.76 in - SSW 4.6 mph - N/A   Unknown
2:56 AM 68.0 °F - 66.9 °F 96% 29.75 in - SSW 3.5 mph - N/A   Unknown
3:56 AM 64.9 °F - 64.0 °F 97% 29.76 in - Calm Calm - N/A   Unknown
4:56 AM 64.9 °F - 64.0 °F 97% 29.76 in - South 4.6 mph - N/A   Unknown
5:56 AM 69.1 °F - 68.0 °F 96% 29.75 in - South 4.6 mph - N/A   Unknown
6:56 AM 64.0 °F - 64.0 °F 100% 29.77 in - SSE 5.8 mph - N/A   Unknown
7:56 AM 68.0 °F - 68.0 °F 100% 29.77 in - SE 3.5 mph - N/A   Unknown
8:56 AM 75.0 °F - 72.0 °F 90% 29.77 in - Calm Calm - N/A   Unknown
9:56 AM 81.0 °F 86.7 °F 75.0 °F 82% 29.77 in - South 3.5 mph - N/A   Unknown
10:56 AM 86.0 °F 93.8 °F 73.9 °F 67% 29.76 in - Calm Calm - N/A   Unknown
11:56 AM 89.1 °F 96.0 °F 72.0 °F 57% 29.76 in - Calm Calm - N/A   Unknown
12:56 PM 89.1 °F 99.1 °F 75.0 °F 63% 29.75 in - South 6.9 mph - N/A   Unknown
1:56 PM 89.1 °F 98.0 °F 73.9 °F 61% 29.74 in - SSE 6.9 mph - N/A   Unknown
2:56 PM 91.0 °F 99.3 °F 73.0 °F 55% 29.73 in - SSE 8.1 mph - N/A   Unknown
3:56 PM 91.9 °F 99.5 °F 72.0 °F 52% 29.72 in - South 9.2 mph - N/A   Unknown
4:56 PM 91.9 °F 94.1 °F 64.9 °F 41% 29.71 in - SSW 10.4 mph - N/A   Unknown
5:56 PM 91.0 °F 92.6 °F 64.0 °F 41% 29.70 in - South 10.4 mph 24.2 mph N/A   Unknown
6:56 PM 87.1 °F 90.6 °F 68.0 °F 53% 29.71 in - South 8.1 mph - N/A   Unknown
7:56 PM 81.0 °F 84.4 °F 70.0 °F 69% 29.72 in - SSW 4.6 mph - N/A   Unknown
8:56 PM 75.9 °F - 70.0 °F 82% 29.72 in - South 6.9 mph - N/A   Unknown
9:56 PM 75.0 °F - 70.0 °F 84% 29.73 in - South 8.1 mph - N/A   Unknown
10:56 PM 75.0 °F - 70.0 °F 84% 29.71 in - South 5.8 mph - N/A   Unknown
11:56 PM 79.0 °F - 72.0 °F 79% 29.69 in - South 9.2 mph - N/A   Unknown